| time (UTC) | temp C | wind direction | speed KPH | gust KPH | rain 1hr cm | rain 24hr cm | rain mn cm | humidity % | barometer mb |
| 20260507233534 | 2 | 104 | 0.0 | 0.0 | 0.00 | 0.00 | 0.00 | 58 | 1017.0 |
| 20260507233033 | 2 | 104 | 0.0 | 0.0 | 0.00 | 0.00 | 0.00 | 58 | 1017.0 |
| 20260507232533 | 2 | 104 | 0.0 | 0.0 | 0.00 | 0.00 | 0.00 | 58 | 1016.9 |
| 20260507232030 | 3 | 104 | 0.0 | 0.0 | 0.00 | 0.00 | 0.00 | 59 | 1016.9 |
| 20260507231530 | 3 | 104 | 0.0 | 0.0 | 0.00 | 0.00 | 0.00 | 57 | 1016.9 |
| 20260507231029 | 3 | 104 | 0.0 | 0.0 | 0.00 | 0.00 | 0.00 | 57 | 1016.8 |
| 20260507230532 | 3 | 104 | 0.0 | 0.0 | 0.00 | 0.00 | 0.00 | 57 | 1016.7 |
| 20260507230026 | 3 | 104 | 0.0 | 0.0 | 0.00 | 0.00 | 0.00 | 54 | 1016.7 |
| 20260507225525 | 3 | 104 | 0.0 | 0.0 | 0.00 | 0.00 | 0.00 | 55 | 1016.6 |
| 20260507225025 | 3 | 104 | 0.0 | 0.0 | 0.00 | 0.00 | 0.00 | 55 | 1016.6 |
| 20260507224523 | 3 | 104 | 0.0 | 0.0 | 0.00 | 0.00 | 0.00 | 55 | 1016.6 |
| 20260507224022 | 4 | 104 | 0.0 | 0.0 | 0.00 | 0.00 | 0.00 | 56 | 1016.6 |
| 20260507223526 | 4 | 104 | 0.0 | 0.0 | 0.00 | 0.00 | 0.00 | 54 | 1016.6 |
| 20260507223021 | 4 | 104 | 0.0 | 0.0 | 0.00 | 0.00 | 0.00 | 55 | 1016.5 |
| 20260507222519 | 5 | 104 | 0.0 | 0.0 | 0.00 | 0.00 | 0.00 | 54 | 1016.5 |
| 20260507222017 | 5 | 104 | 0.0 | 0.0 | 0.00 | 0.00 | 0.00 | 53 | 1016.4 |
| 20260507221517 | 5 | 104 | 0.0 | 0.0 | 0.00 | 0.00 | 0.00 | 51 | 1016.4 |
| 20260507221014 | 5 | 104 | 0.0 | 0.0 | 0.00 | 0.00 | 0.00 | 51 | 1016.4 |
| 20260507220513 | 5 | 104 | 0.0 | 0.0 | 0.00 | 0.00 | 0.00 | 50 | 1016.4 |
| 20260507220013 | 5 | 104 | 0.0 | 0.0 | 0.00 | 0.00 | 0.00 | 50 | 1016.4 |
| 20260507215512 | 6 | 104 | 0.0 | 0.0 | 0.00 | 0.00 | 0.00 | 48 | 1016.4 |
| 20260507215012 | 6 | 104 | 0.0 | 0.0 | 0.00 | 0.00 | 0.00 | 50 | 1016.3 |
| 20260507214511 | 6 | 104 | 0.0 | 0.0 | 0.00 | 0.00 | 0.00 | 47 | 1016.3 |
| 20260507214011 | 6 | 104 | 0.0 | 0.0 | 0.00 | 0.00 | 0.00 | 46 | 1016.2 |
| 20260507213510 | 7 | 104 | 0.0 | 0.0 | 0.00 | 0.00 | 0.00 | 45 | 1016.2 |
| 20260507213010 | 7 | 104 | 0.0 | 0.0 | 0.00 | 0.00 | 0.00 | 45 | 1016.2 |
| 20260507212509 | 7 | 104 | 0.0 | 0.0 | 0.00 | 0.00 | 0.00 | 43 | 1016.1 |
| 20260507212010 | 8 | 104 | 0.0 | 0.0 | 0.00 | 0.00 | 0.00 | 40 | 1016.1 |
| 20260507211509 | 8 | 104 | 0.0 | 9.7 | 0.00 | 0.00 | 0.00 | 37 | 1016.0 |
| 20260507211009 | 8 | 119 | 0.0 | 11.3 | 0.00 | 0.00 | 0.00 | 38 | 1016.0 |
| 20260507210506 | 9 | 126 | 1.6 | 11.3 | 0.00 | 0.00 | 0.00 | 35 | 1015.8 |
| 20260507210006 | 9 | 123 | 0.0 | 16.1 | 0.00 | 0.00 | 0.00 | 36 | 1015.8 |
| 20260507205506 | 9 | 150 | 1.6 | 16.1 | 0.00 | 0.00 | 0.00 | 36 | 1015.8 |
| 20260507205006 | 9 | 105 | 3.2 | 16.1 | 0.00 | 0.00 | 0.00 | 36 | 1015.8 |
| 20260507204505 | 9 | 136 | 6.4 | 16.1 | 0.00 | 0.00 | 0.00 | 36 | 1015.7 |
| 20260507204005 | 9 | 100 | 4.8 | 12.9 | 0.00 | 0.00 | 0.00 | 37 | 1015.6 |
| 20260507203508 | 9 | 133 | 6.4 | 12.9 | 0.00 | 0.00 | 0.00 | 36 | 1015.5 |
| 20260507203003 | 9 | 140 | 3.2 | 14.5 | 0.00 | 0.00 | 0.00 | 37 | 1015.5 |
| 20260507202504 | 9 | 144 | 8.0 | 16.1 | 0.00 | 0.00 | 0.00 | 36 | 1015.5 |
| 20260507202002 | 9 | 126 | 4.8 | 16.1 | 0.00 | 0.00 | 0.00 | 36 | 1015.5 |
| 20260507201502 | 9 | 156 | 6.4 | 14.5 | 0.00 | 0.00 | 0.00 | 37 | 1015.4 |
| 20260507201101 | 9 | 98 | 1.6 | 11.3 | 0.00 | 0.00 | 0.00 | 36 | 1015.3 |
| 20260507200559 | 9 | 136 | 4.8 | 16.1 | 0.00 | 0.00 | 0.00 | 36 | 1015.3 |
| 20260507200502 | 9 | 135 | 3.2 | 17.7 | 0.00 | 0.00 | 0.00 | 37 | 1015.3 |
| 20260507200059 | 10 | 153 | 3.2 | 17.7 | 0.00 | 0.00 | 0.00 | 36 | 1015.2 |
| 20260507195559 | 10 | 129 | 6.4 | 16.1 | 0.00 | 0.00 | 0.00 | 35 | 1015.1 |
| 20260507195059 | 10 | 161 | 8.0 | 16.1 | 0.00 | 0.00 | 0.00 | 35 | 1015.1 |
| 20260507194558 | 10 | 130 | 6.4 | 17.7 | 0.00 | 0.00 | 0.00 | 35 | 1015.1 |
| 20260507194056 | 10 | 150 | 3.2 | 19.3 | 0.00 | 0.00 | 0.00 | 35 | 1015.0 |
| 20260507193556 | 10 | 156 | 4.8 | 17.7 | 0.00 | 0.00 | 0.00 | 36 | 1014.9 |
| 20260507193108 | 10 | 153 | 4.8 | 14.5 | 0.00 | 0.00 | 0.00 | 37 | 1014.8 |
| 20260507192555 | 10 | 114 | 1.6 | 17.7 | 0.00 | 0.00 | 0.00 | 36 | 1014.6 |
| 20260507192053 | 11 | 126 | 11.3 | 20.9 | 0.00 | 0.00 | 0.00 | 35 | 1014.5 |
| 20260507191552 | 11 | 113 | 12.9 | 29.0 | 0.00 | 0.00 | 0.00 | 35 | 1014.5 |
| 20260507191051 | 11 | 118 | 16.1 | 29.0 | 0.00 | 0.00 | 0.00 | 35 | 1014.4 |
| 20260507190552 | 11 | 107 | 12.9 | 22.5 | 0.00 | 0.00 | 0.00 | 35 | 1014.2 |
| 20260507190153 | 11 | 101 | 9.7 | 17.7 | 0.00 | 0.00 | 0.00 | 36 | 1014.2 |
| 20260507185551 | 11 | 88 | 6.4 | 20.9 | 0.00 | 0.00 | 0.00 | 36 | 1014.1 |
| 20260507185052 | 12 | 155 | 8.0 | 20.9 | 0.00 | 0.00 | 0.00 | 35 | 1014.0 |
| 20260507184550 | 12 | 126 | 9.7 | 20.9 | 0.00 | 0.00 | 0.00 | 36 | 1013.9 |
| 20260507184050 | 12 | 105 | 8.0 | 20.9 | 0.00 | 0.00 | 0.00 | 36 | 1013.7 |
| 20260507183550 | 12 | 97 | 4.8 | 17.7 | 0.00 | 0.00 | 0.00 | 37 | 1013.7 |
| 20260507183056 | 12 | 134 | 1.6 | 17.7 | 0.00 | 0.00 | 0.00 | 37 | 1013.6 |
| 20260507182553 | 12 | 142 | 3.2 | 14.5 | 0.00 | 0.00 | 0.00 | 36 | 1013.6 |
| 20260507182049 | 12 | 171 | 1.6 | 9.7 | 0.00 | 0.00 | 0.00 | 35 | 1013.5 |
| 20260507181550 | 12 | 135 | 0.0 | 4.8 | 0.00 | 0.00 | 0.00 | 36 | 1013.5 |
| 20260507181002 | 12 | 129 | 0.0 | 0.0 | 0.00 | 0.00 | 0.00 | 35 | 1013.3 |
| 20260507180540 | 12 | 129 | 0.0 | 0.0 | 0.00 | 0.00 | 0.00 | 34 | 1013.3 |
| 20260507180141 | 12 | 129 | 0.0 | 0.0 | 0.00 | 0.00 | 0.00 | 32 | 1013.2 |
| 20260507175633 | 12 | 129 | 0.0 | 1.6 | 0.00 | 0.00 | 0.00 | 33 | 1013.2 |
| 20260507175138 | 13 | 129 | 0.0 | 1.6 | 0.00 | 0.00 | 0.00 | 31 | 1013.2 |
| 20260507174628 | 13 | 167 | 0.0 | 0.0 | 0.00 | 0.00 | 0.00 | 31 | 1013.2 |
| 20260507174157 | 13 | 178 | 0.0 | 1.6 | 0.00 | 0.00 | 0.00 | 32 | 1013.1 |
| 20260507173152 | 13 | 234 | 0.0 | 8.0 | 0.00 | 0.00 | 0.00 | 31 | 1013.0 |
| 20260507172512 | 13 | 148 | 0.0 | 6.4 | 0.00 | 0.00 | 0.00 | 32 | 1013.0 |
| 20260507172012 | 13 | 136 | 0.0 | 1.6 | 0.00 | 0.00 | 0.00 | 29 | 1013.0 |
| 20260507171648 | 14 | 191 | 0.0 | 1.6 | 0.00 | 0.00 | 0.00 | 28 | 1013.0 |
| 20260507171100 | 14 | 144 | 0.0 | 1.6 | 0.00 | 0.00 | 0.00 | 28 | 1013.0 |
| 20260507170552 | 15 | 144 | 0.0 | 1.6 | 0.00 | 0.00 | 0.00 | 29 | 1013.0 |
| 20260507170120 | 15 | 132 | 0.0 | 4.8 | 0.00 | 0.00 | 0.00 | 29 | 1013.0 |
| 20260507165610 | 15 | 131 | 0.0 | 4.8 | 0.00 | 0.00 | 0.00 | 28 | 1012.9 |
| 20260507165101 | 15 | 198 | 0.0 | 3.2 | 0.00 | 0.00 | 0.00 | 28 | 1012.9 |
| 20260507164630 | 15 | 184 | 0.0 | 3.2 | 0.00 | 0.00 | 0.00 | 29 | 1012.9 |
| 20260507163051 | 15 | 137 | 0.0 | 0.0 | 0.00 | 0.00 | 0.00 | 26 | 1012.9 |
| 20260507162551 | 15 | 165 | 0.0 | 0.0 | 0.00 | 0.00 | 0.00 | 27 | 1012.9 |
| 20260507162053 | 15 | 118 | 0.0 | 3.2 | 0.00 | 0.00 | 0.00 | 27 | 1012.9 |
| 20260507161550 | 14 | 115 | 0.0 | 4.8 | 0.00 | 0.00 | 0.00 | 25 | 1013.0 |
| 20260507161052 | 14 | 139 | 0.0 | 9.7 | 0.00 | 0.00 | 0.00 | 27 | 1013.0 |
| 20260507160552 | 15 | 136 | 0.0 | 1.6 | 0.00 | 0.00 | 0.00 | 27 | 1013.0 |
| 20260507160149 | 14 | 138 | 0.0 | 1.6 | 0.00 | 0.00 | 0.00 | 27 | 1013.0 |
| 20260507155549 | 14 | 220 | 0.0 | 6.4 | 0.00 | 0.00 | 0.00 | 25 | 1013.0 |
| 20260507155048 | 13 | 139 | 0.0 | 6.4 | 0.00 | 0.00 | 0.00 | 25 | 1013.2 |
| 20260507154548 | 13 | 146 | 0.0 | 8.0 | 0.00 | 0.00 | 0.00 | 27 | 1013.1 |
| 20260507154047 | 13 | 123 | 0.0 | 8.0 | 0.00 | 0.00 | 0.00 | 26 | 1013.1 |
| 20260507153549 | 14 | 150 | 0.0 | 4.8 | 0.00 | 0.00 | 0.00 | 30 | 1013.1 |
| 20260507153051 | 13 | 164 | 0.0 | 3.2 | 0.00 | 0.00 | 0.00 | 29 | 1013.1 |
| 20260507152548 | 13 | 134 | 0.0 | 6.4 | 0.00 | 0.00 | 0.00 | 30 | 1013.1 |
| 20260507152046 | 13 | 132 | 1.6 | 6.4 | 0.00 | 0.00 | 0.00 | 26 | 1013.1 |
| 20260507151545 | 14 | 112 | 0.0 | 11.3 | 0.00 | 0.00 | 0.00 | 29 | 1013.1 |
| 20260507151047 | 14 | 192 | 3.2 | 11.3 | 0.00 | 0.00 | 0.00 | 26 | 1013.1 |
| 20260507150544 | 14 | 128 | 0.0 | 3.2 | 0.00 | 0.00 | 0.00 | 27 | 1013.1 |
| 20260507150044 | 14 | 221 | 0.0 | 11.3 | 0.00 | 0.00 | 0.00 | 28 | 1013.1 |
| 20260507145544 | 14 | 111 | 0.0 | 14.5 | 0.00 | 0.00 | 0.00 | 26 | 1013.0 |
| 20260507145043 | 14 | 173 | 1.6 | 14.5 | 0.00 | 0.00 | 0.00 | 28 | 1013.0 |
| 20260507144547 | 15 | 150 | 0.0 | 8.0 | 0.00 | 0.00 | 0.00 | 24 | 1013.1 |
| 20260507144041 | 15 | 150 | 0.0 | 11.3 | 0.00 | 0.00 | 0.00 | 26 | 1013.0 |
| 20260507143540 | 15 | 213 | 0.0 | 4.8 | 0.00 | 0.00 | 0.00 | 26 | 1013.1 |
| 20260507143041 | 15 | 217 | 0.0 | 4.8 | 0.00 | 0.00 | 0.00 | 29 | 1013.1 |
| 20260507142539 | 15 | 155 | 0.0 | 1.6 | 0.00 | 0.00 | 0.00 | 27 | 1013.1 |
| 20260507142038 | 15 | 135 | 0.0 | 1.6 | 0.00 | 0.00 | 0.00 | 27 | 1013.1 |
| 20260507141538 | 15 | 175 | 0.0 | 3.2 | 0.00 | 0.00 | 0.00 | 27 | 1013.1 |
| 20260507141037 | 15 | 175 | 0.0 | 9.7 | 0.00 | 0.00 | 0.00 | 32 | 1013.2 |
| 20260507140536 | 15 | 188 | 0.0 | 17.7 | 0.00 | 0.00 | 0.00 | 29 | 1013.1 |
| 20260507140048 | 15 | 139 | 0.0 | 11.3 | 0.00 | 0.00 | 0.00 | 26 | 1013.2 |
| 20260507135534 | 15 | 130 | 0.0 | 3.2 | 0.00 | 0.00 | 0.00 | 30 | 1013.2 |
| 20260507135034 | 15 | 87 | 0.0 | 3.2 | 0.00 | 0.00 | 0.00 | 28 | 1013.2 |
| 20260507134534 | 15 | 142 | 0.0 | 3.2 | 0.00 | 0.00 | 0.00 | 28 | 1013.2 |
| 20260507134032 | 15 | 216 | 0.0 | 3.2 | 0.00 | 0.00 | 0.00 | 27 | 1013.2 |
| 20260507133535 | 15 | 213 | 0.0 | 3.2 | 0.00 | 0.00 | 0.00 | 30 | 1013.2 |
| 20260507133031 | 14 | 236 | 0.0 | 3.2 | 0.00 | 0.00 | 0.00 | 28 | 1013.3 |
| 20260507132530 | 15 | 145 | 0.0 | 4.8 | 0.00 | 0.00 | 0.00 | 27 | 1013.4 |
| 20260507132129 | 15 | 200 | 0.0 | 4.8 | 0.00 | 0.00 | 0.00 | 30 | 1013.4 |
| 20260507131528 | 14 | 217 | 0.0 | 11.3 | 0.00 | 0.00 | 0.00 | 31 | 1013.4 |
| 20260507131028 | 14 | 116 | 0.0 | 11.3 | 0.00 | 0.00 | 0.00 | 29 | 1013.4 |
| 20260507130531 | 15 | 144 | 0.0 | 0.0 | 0.00 | 0.00 | 0.00 | 31 | 1013.4 |
| 20260507130027 | 15 | 150 | 0.0 | 4.8 | 0.00 | 0.00 | 0.00 | 26 | 1013.4 |
| 20260507125529 | 15 | 164 | 0.0 | 4.8 | 0.00 | 0.00 | 0.00 | 30 | 1013.5 |
| 20260507125025 | 15 | 223 | 0.0 | 4.8 | 0.00 | 0.00 | 0.00 | 30 | 1013.5 |
| 20260507124526 | 15 | 216 | 0.0 | 3.2 | 0.00 | 0.00 | 0.00 | 29 | 1013.5 |
| 20260507124024 | 15 | 147 | 0.0 | 3.2 | 0.00 | 0.00 | 0.00 | 34 | 1013.4 |
| 20260507123524 | 14 | 143 | 0.0 | 3.2 | 0.00 | 0.00 | 0.00 | 34 | 1013.5 |
| 20260507123024 | 14 | 178 | 0.0 | 0.0 | 0.00 | 0.00 | 0.00 | 30 | 1013.5 |
| 20260507122521 | 14 | 144 | 0.0 | 0.0 | 0.00 | 0.00 | 0.00 | 30 | 1013.5 |
| 20260507122021 | 13 | 165 | 0.0 | 11.3 | 0.00 | 0.00 | 0.00 | 29 | 1013.5 |
| 20260507121520 | 14 | 138 | 1.6 | 8.0 | 0.00 | 0.00 | 0.00 | 31 | 1013.5 |
| 20260507121021 | 13 | 137 | 0.0 | 1.6 | 0.00 | 0.00 | 0.00 | 31 | 1013.6 |
| 20260507120517 | 13 | 225 | 0.0 | 1.6 | 0.00 | 0.00 | 0.00 | 30 | 1013.6 |
| 20260507120017 | 13 | 138 | 0.0 | 6.4 | 0.00 | 0.00 | 0.00 | 32 | 1013.6 |
| 20260507115517 | 13 | 128 | 0.0 | 8.0 | 0.00 | 0.00 | 0.00 | 32 | 1013.6 |
| 20260507115016 | 13 | 146 | 1.6 | 8.0 | 0.00 | 0.00 | 0.00 | 32 | 1013.7 |
| 20260507114517 | 13 | 329 | 0.0 | 0.0 | 0.00 | 0.00 | 0.00 | 27 | 1013.7 |
| 20260507114015 | 13 | 340 | 0.0 | 0.0 | 0.00 | 0.00 | 0.00 | 33 | 1013.8 |
| 20260507113515 | 13 | 5 | 0.0 | 0.0 | 0.00 | 0.00 | 0.00 | 31 | 1013.7 |
| 20260507113014 | 12 | 334 | 0.0 | 0.0 | 0.00 | 0.00 | 0.00 | 33 | 1013.7 |
| 20260507112511 | 12 | 106 | 0.0 | 1.6 | 0.00 | 0.00 | 0.00 | 30 | 1013.8 |
| 20260507112012 | 12 | 125 | 0.0 | 1.6 | 0.00 | 0.00 | 0.00 | 30 | 1013.8 |
| 20260507111511 | 12 | 269 | 0.0 | 8.0 | 0.00 | 0.00 | 0.00 | 28 | 1014.0 |
| 20260507111009 | 12 | 355 | 1.6 | 8.0 | 0.00 | 0.00 | 0.00 | 35 | 1014.0 |
| 20260507110512 | 12 | 115 | 0.0 | 4.8 | 0.00 | 0.00 | 0.00 | 30 | 1014.0 |
| 20260507110009 | 12 | 128 | 0.0 | 4.8 | 0.00 | 0.00 | 0.00 | 29 | 1014.0 |
| 20260507105508 | 12 | 328 | 0.0 | 8.0 | 0.00 | 0.00 | 0.00 | 29 | 1014.0 |
| 20260507105008 | 12 | 128 | 0.0 | 1.6 | 0.00 | 0.00 | 0.00 | 33 | 1014.0 |
| 20260507104511 | 12 | 265 | 0.0 | 6.4 | 0.00 | 0.00 | 0.00 | 31 | 1014.0 |
| 20260507104004 | 12 | 137 | 0.0 | 6.4 | 0.00 | 0.00 | 0.00 | 33 | 1014.0 |
| 20260507103504 | 12 | 136 | 0.0 | 6.4 | 0.00 | 0.00 | 0.00 | 35 | 1013.9 |
| 20260507103003 | 12 | 238 | 0.0 | 0.0 | 0.00 | 0.00 | 0.00 | 31 | 1014.0 |
| 20260507102505 | 12 | 290 | 0.0 | 0.0 | 0.00 | 0.00 | 0.00 | 30 | 1013.9 |
| 20260507102003 | 12 | 203 | 0.0 | 0.0 | 0.00 | 0.00 | 0.00 | 30 | 1013.9 |
| 20260507101600 | 12 | 272 | 0.0 | 0.0 | 0.00 | 0.00 | 0.00 | 32 | 1013.9 |
| 20260507101059 | 12 | 230 | 0.0 | 0.0 | 0.00 | 0.00 | 0.00 | 34 | 1014.0 |
| 20260507100559 | 12 | 250 | 0.0 | 0.0 | 0.00 | 0.00 | 0.00 | 39 | 1014.0 |
| 20260507100059 | 11 | 118 | 0.0 | 1.6 | 0.00 | 0.00 | 0.00 | 35 | 1014.0 |
| 20260507095557 | 11 | 227 | 0.0 | 1.6 | 0.00 | 0.00 | 0.00 | 38 | 1013.9 |
| 20260507095056 | 11 | 277 | 0.0 | 1.6 | 0.00 | 0.00 | 0.00 | 37 | 1013.9 |
| 20260507094555 | 11 | 25 | 0.0 | 1.6 | 0.00 | 0.00 | 0.00 | 37 | 1013.9 |
| 20260507094053 | 11 | 276 | 0.0 | 1.6 | 0.00 | 0.00 | 0.00 | 35 | 1014.0 |
| 20260507093552 | 11 | 121 | 0.0 | 1.6 | 0.00 | 0.00 | 0.00 | 40 | 1014.0 |
| 20260507093051 | 11 | 225 | 0.0 | 1.6 | 0.00 | 0.00 | 0.00 | 40 | 1014.0 |
| 20260507092550 | 11 | 217 | 0.0 | 3.2 | 0.00 | 0.00 | 0.00 | 38 | 1014.0 |
| 20260507092048 | 11 | 229 | 0.0 | 8.0 | 0.00 | 0.00 | 0.00 | 39 | 1014.0 |
| 20260507091548 | 10 | 261 | 0.0 | 1.6 | 0.00 | 0.00 | 0.00 | 41 | 1013.9 |
| 20260507091049 | 10 | 103 | 0.0 | 0.0 | 0.00 | 0.00 | 0.00 | 39 | 1013.9 |
| 20260507090549 | 10 | 329 | 0.0 | 0.0 | 0.00 | 0.00 | 0.00 | 39 | 1013.9 |
| 20260507090048 | 10 | 273 | 0.0 | 0.0 | 0.00 | 0.00 | 0.00 | 37 | 1014.0 |
| 20260507085548 | 10 | 263 | 0.0 | 0.0 | 0.00 | 0.00 | 0.00 | 39 | 1014.0 |
| 20260507085046 | 10 | 291 | 0.0 | 1.6 | 0.00 | 0.00 | 0.00 | 41 | 1014.1 |
| 20260507084551 | 10 | 289 | 0.0 | 1.6 | 0.00 | 0.00 | 0.00 | 39 | 1014.1 |
| 20260507084044 | 10 | 300 | 0.0 | 0.0 | 0.00 | 0.00 | 0.00 | 42 | 1014.1 |
| 20260507083544 | 10 | 265 | 0.0 | 0.0 | 0.00 | 0.00 | 0.00 | 43 | 1014.1 |
| 20260507083048 | 10 | 261 | 0.0 | 0.0 | 0.00 | 0.00 | 0.00 | 43 | 1014.1 |
| 20260507082544 | 9 | 209 | 0.0 | 0.0 | 0.00 | 0.00 | 0.00 | 43 | 1014.2 |
| 20260507082042 | 9 | 316 | 0.0 | 0.0 | 0.00 | 0.00 | 0.00 | 44 | 1014.1 |
| 20260507081538 | 8 | 316 | 0.0 | 1.6 | 0.00 | 0.00 | 0.00 | 43 | 1014.1 |
| 20260507081040 | 8 | 355 | 0.0 | 0.0 | 0.00 | 0.00 | 0.00 | 43 | 1014.2 |
| 20260507080535 | 8 | 244 | 0.0 | 0.0 | 0.00 | 0.00 | 0.00 | 45 | 1014.1 |
| 20260507080033 | 8 | 14 | 0.0 | 0.0 | 0.00 | 0.00 | 0.00 | 46 | 1014.1 |
| 20260507075532 | 8 | 17 | 0.0 | 0.0 | 0.00 | 0.00 | 0.00 | 49 | 1014.1 |
| 20260507075033 | 8 | 34 | 0.0 | 1.6 | 0.00 | 0.00 | 0.00 | 48 | 1014.1 |
| 20260507074530 | 7 | 53 | 0.0 | 1.6 | 0.00 | 0.00 | 0.00 | 51 | 1014.1 |
| 20260507074028 | 7 | 245 | 0.0 | 4.8 | 0.00 | 0.00 | 0.00 | 51 | 1014.1 |
| 20260507073527 | 7 | 326 | 0.0 | 4.8 | 0.00 | 0.00 | 0.00 | 50 | 1014.2 |
| 20260507073025 | 7 | 23 | 0.0 | 3.2 | 0.00 | 0.00 | 0.00 | 53 | 1014.2 |
| 20260507072524 | 6 | 36 | 0.0 | 1.6 | 0.00 | 0.00 | 0.00 | 52 | 1014.2 |
| 20260507072022 | 6 | 33 | 0.0 | 1.6 | 0.00 | 0.00 | 0.00 | 53 | 1014.2 |
| 20260507071521 | 6 | 5 | 0.0 | 1.6 | 0.00 | 0.00 | 0.00 | 55 | 1014.2 |
| 20260507071025 | 6 | 15 | 0.0 | 1.6 | 0.00 | 0.00 | 0.00 | 55 | 1014.3 |
| 20260507070518 | 6 | 26 | 0.0 | 3.2 | 0.00 | 0.00 | 0.00 | 56 | 1014.2 |
| 20260507070017 | 5 | 12 | 0.0 | 3.2 | 0.00 | 0.00 | 0.00 | 56 | 1014.3 |
| 20260507065519 | 5 | 5 | 0.0 | 0.0 | 0.00 | 0.00 | 0.00 | 57 | 1014.3 |
| 20260507065014 | 5 | 11 | 0.0 | 0.0 | 0.00 | 0.00 | 0.00 | 59 | 1014.2 |
| 20260507064512 | 5 | 360 | 0.0 | 0.0 | 0.00 | 0.00 | 0.00 | 64 | 1014.2 |
| 20260507064012 | 4 | 360 | 0.0 | 0.0 | 0.00 | 0.00 | 0.00 | 61 | 1014.2 |
| 20260507063508 | 4 | 360 | 0.0 | 1.6 | 0.00 | 0.00 | 0.00 | 67 | 1014.3 |
| 20260507063007 | 3 | 360 | 0.0 | 0.0 | 0.00 | 0.00 | 0.00 | 69 | 1014.3 |
| 20260507062506 | 3 | 360 | 0.0 | 0.0 | 0.00 | 0.00 | 0.00 | 70 | 1014.4 |
| 20260507062004 | 2 | 360 | 0.0 | 0.0 | 0.00 | 0.00 | 0.00 | 71 | 1014.3 |
| 20260507061504 | 2 | 360 | 0.0 | 1.6 | 0.00 | 0.00 | 0.00 | 74 | 1014.3 |
| 20260507061001 | 1 | 360 | 0.0 | 1.6 | 0.00 | 0.00 | 0.00 | 76 | 1014.4 |
| 20260507060501 | 0 | 360 | 0.0 | 0.0 | 0.00 | 0.00 | 0.00 | 77 | 1014.4 |
| 20260507060104 | 0 | 360 | 0.0 | 0.0 | 0.00 | 0.00 | 0.00 | 78 | 1014.3 |
| 20260507055558 | 0 | 360 | 0.0 | 0.0 | 0.00 | 0.00 | 0.00 | 79 | 1014.4 |
| 20260507055057 | 0 | 360 | 0.0 | 0.0 | 0.00 | 0.00 | 0.00 | 79 | 1014.4 |
| 20260507054606 | -1 | 360 | 0.0 | 0.0 | 0.00 | 0.00 | 0.00 | 80 | 1014.3 |
| 20260507054055 | -1 | 360 | 0.0 | 0.0 | 0.00 | 0.00 | 0.00 | 80 | 1014.3 |
| 20260507053555 | -1 | 360 | 0.0 | 0.0 | 0.00 | 0.00 | 0.00 | 80 | 1014.2 |
| 20260507053056 | -1 | 360 | 0.0 | 0.0 | 0.00 | 0.00 | 0.00 | 80 | 1014.2 |
| 20260507052537 | -1 | 360 | 0.0 | 0.0 | 0.00 | 0.00 | 0.00 | 80 | 1014.2 |
| 20260507052036 | -1 | 360 | 0.0 | 0.0 | 0.00 | 0.00 | 0.00 | 81 | 1014.2 |
| 20260507051536 | -1 | 360 | 0.0 | 0.0 | 0.00 | 0.00 | 0.00 | 81 | 1014.1 |
| 20260507051034 | -1 | 360 | 0.0 | 0.0 | 0.00 | 0.00 | 0.00 | 81 | 1014.2 |
| 20260507050534 | -1 | 360 | 0.0 | 0.0 | 0.00 | 0.00 | 0.00 | 81 | 1014.1 |
| 20260507050034 | -1 | 360 | 0.0 | 0.0 | 0.00 | 0.00 | 0.00 | 81 | 1014.1 |
| 20260507045534 | -1 | 360 | 0.0 | 0.0 | 0.00 | 0.00 | 0.00 | 80 | 1014.1 |
| 20260507045033 | -1 | 360 | 0.0 | 0.0 | 0.00 | 0.00 | 0.00 | 80 | 1014.0 |
| 20260507044533 | -1 | 360 | 0.0 | 0.0 | 0.00 | 0.00 | 0.00 | 79 | 1014.0 |
| 20260507044031 | -1 | 360 | 0.0 | 0.0 | 0.00 | 0.00 | 0.00 | 78 | 1013.9 |
| 20260507043530 | -1 | 360 | 0.0 | 0.0 | 0.00 | 0.00 | 0.00 | 77 | 1013.9 |
| 20260507043036 | 0 | 360 | 0.0 | 0.0 | 0.00 | 0.00 | 0.00 | 77 | 1013.8 |
| 20260507042530 | 0 | 360 | 0.0 | 0.0 | 0.00 | 0.00 | 0.00 | 76 | 1013.7 |
| 20260507042028 | 0 | 360 | 0.0 | 0.0 | 0.00 | 0.00 | 0.00 | 77 | 1013.7 |
| 20260507041527 | -1 | 360 | 0.0 | 0.0 | 0.00 | 0.00 | 0.00 | 77 | 1013.7 |
| 20260507041027 | -1 | 360 | 0.0 | 0.0 | 0.00 | 0.00 | 0.00 | 78 | 1013.7 |
| 20260507040526 | -1 | 5 | 0.0 | 0.0 | 0.00 | 0.00 | 0.00 | 79 | 1013.7 |
| 20260507040025 | -1 | 5 | 0.0 | 0.0 | 0.00 | 0.00 | 0.00 | 79 | 1013.6 |
| 20260507035525 | -1 | 5 | 0.0 | 0.0 | 0.00 | 0.00 | 0.00 | 79 | 1013.6 |
| 20260507035024 | -1 | 5 | 0.0 | 0.0 | 0.00 | 0.00 | 0.00 | 79 | 1013.6 |
| 20260507034522 | -1 | 5 | 0.0 | 0.0 | 0.00 | 0.00 | 0.00 | 78 | 1013.5 |
| 20260507034021 | -1 | 5 | 0.0 | 0.0 | 0.00 | 0.00 | 0.00 | 77 | 1013.5 |
| 20260507033520 | -1 | 5 | 0.0 | 0.0 | 0.00 | 0.00 | 0.00 | 76 | 1013.4 |
| 20260507033019 | -1 | 5 | 0.0 | 0.0 | 0.00 | 0.00 | 0.00 | 76 | 1013.4 |
| 20260507032519 | 0 | 5 | 0.0 | 0.0 | 0.00 | 0.00 | 0.00 | 75 | 1013.3 |
| 20260507032020 | 0 | 5 | 0.0 | 0.0 | 0.00 | 0.00 | 0.00 | 74 | 1013.3 |
| 20260507031514 | 0 | 5 | 0.0 | 0.0 | 0.00 | 0.00 | 0.00 | 72 | 1013.3 |
| 20260507031013 | 0 | 5 | 0.0 | 0.0 | 0.00 | 0.00 | 0.00 | 71 | 1013.2 |
| 20260507030512 | 0 | 5 | 0.0 | 0.0 | 0.00 | 0.00 | 0.00 | 71 | 1013.2 |
| 20260507030012 | 0 | 5 | 0.0 | 0.0 | 0.00 | 0.00 | 0.00 | 69 | 1013.2 |
| 20260507025509 | 0 | 5 | 0.0 | 0.0 | 0.00 | 0.00 | 0.00 | 68 | 1013.2 |
| 20260507025010 | 0 | 5 | 0.0 | 0.0 | 0.00 | 0.00 | 0.00 | 68 | 1013.2 |
| 20260507024509 | 0 | 355 | 0.0 | 6.4 | 0.00 | 0.00 | 0.00 | 68 | 1013.1 |
| 20260507024008 | 0 | 5 | 0.0 | 6.4 | 0.00 | 0.00 | 0.00 | 68 | 1013.2 |
| 20260507023509 | 0 | 18 | 0.0 | 1.6 | 0.00 | 0.00 | 0.00 | 69 | 1013.2 |
| 20260507023006 | 0 | 26 | 0.0 | 1.6 | 0.00 | 0.00 | 0.00 | 69 | 1013.1 |
| 20260507022506 | 0 | 16 | 0.0 | 0.0 | 0.00 | 0.00 | 0.00 | 68 | 1013.1 |
| 20260507022004 | 0 | 16 | 0.0 | 1.6 | 0.00 | 0.00 | 0.00 | 67 | 1013.0 |
| 20260507021509 | 1 | 16 | 0.0 | 1.6 | 0.00 | 0.00 | 0.00 | 67 | 1012.9 |
| 20260507021002 | 1 | 20 | 0.0 | 1.6 | 0.00 | 0.00 | 0.00 | 66 | 1013.0 |
| 20260507020501 | 1 | 355 | 0.0 | 3.2 | 0.00 | 0.00 | 0.00 | 65 | 1012.9 |
| 20260507020002 | 1 | 37 | 0.0 | 3.2 | 0.00 | 0.00 | 0.00 | 65 | 1012.9 |
| 20260507015500 | 1 | 15 | 0.0 | 4.8 | 0.00 | 0.00 | 0.00 | 65 | 1012.8 |
| 20260507015100 | 1 | 5 | 0.0 | 4.8 | 0.00 | 0.00 | 0.00 | 65 | 1012.8 |
| 20260507014609 | 1 | 344 | 0.0 | 1.6 | 0.00 | 0.00 | 0.00 | 67 | 1012.8 |
| 20260507014059 | 1 | 344 | 0.0 | 4.8 | 0.00 | 0.00 | 0.00 | 66 | 1012.9 |
| 20260507013558 | 1 | 336 | 0.0 | 4.8 | 0.00 | 0.00 | 0.00 | 66 | 1012.8 |
| 20260507013058 | 1 | 22 | 0.0 | 0.0 | 0.00 | 0.00 | 0.00 | 66 | 1012.8 |
| 20260507012557 | 1 | 339 | 0.0 | 0.0 | 0.00 | 0.00 | 0.00 | 66 | 1012.8 |
| 20260507012056 | 1 | 339 | 0.0 | 0.0 | 0.00 | 0.00 | 0.00 | 65 | 1012.7 |
| 20260507011603 | 1 | 338 | 0.0 | 0.0 | 0.00 | 0.00 | 0.00 | 65 | 1012.6 |
| 20260507011055 | 1 | 343 | 0.0 | 4.8 | 0.00 | 0.00 | 0.00 | 65 | 1012.7 |
| 20260507010555 | 1 | 338 | 0.0 | 4.8 | 0.00 | 0.00 | 0.00 | 64 | 1012.6 |
| 20260507010056 | 2 | 335 | 0.0 | 4.8 | 0.00 | 0.00 | 0.00 | 63 | 1012.5 |
| 20260507005554 | 2 | 341 | 0.0 | 3.2 | 0.00 | 0.00 | 0.00 | 63 | 1012.5 |
| 20260507005057 | 2 | 5 | 0.0 | 3.2 | 0.00 | 0.00 | 0.00 | 61 | 1012.5 |
| 20260507004553 | 2 | 319 | 0.0 | 1.6 | 0.00 | 0.00 | 0.00 | 62 | 1012.4 |
| 20260507004052 | 2 | 9 | 0.0 | 1.6 | 0.00 | 0.00 | 0.00 | 61 | 1012.4 |
| 20260507003551 | 2 | 33 | 0.0 | 3.2 | 0.00 | 0.00 | 0.00 | 62 | 1012.4 |
| 20260507003050 | 2 | 22 | 0.0 | 4.8 | 0.00 | 0.00 | 0.00 | 62 | 1012.3 |
| 20260507002551 | 2 | 34 | 0.0 | 4.8 | 0.00 | 0.00 | 0.00 | 63 | 1012.3 |
| 20260507002051 | 1 | 53 | 0.0 | 3.2 | 0.00 | 0.00 | 0.00 | 66 | 1012.3 |
| 20260507001605 | 1 | 19 | 0.0 | 3.2 | 0.00 | 0.00 | 0.00 | 67 | 1012.3 |
| 20260507001048 | 1 | 19 | 0.0 | 0.0 | 0.00 | 0.00 | 0.00 | 68 | 1012.2 |
| 20260507000549 | 1 | 19 | 0.0 | 0.0 | 0.00 | 0.00 | 0.00 | 67 | 1012.1 |
| 20260507000056 | 1 | 13 | 0.0 | 0.0 | 0.00 | 0.00 | 0.00 | 68 | 1012.2 |
| 20260506235547 | 1 | 13 | 0.0 | 0.0 | 0.00 | 0.00 | 0.00 | 67 | 1012.2 |
| 20260506235048 | 1 | 13 | 0.0 | 0.0 | 0.00 | 0.00 | 0.00 | 68 | 1012.2 |
| 20260506234546 | 1 | 13 | 0.0 | 0.0 | 0.00 | 0.00 | 0.00 | 67 | 1012.1 |
| 20260506234045 | 1 | 13 | 0.0 | 0.0 | 0.00 | 0.00 | 0.00 | 68 | 1012.1 |